Probability
0 0 0 0 0 2 12 34 60 76 81 78 62 40 21 9 5 5 4 3 1 0 0 0 0 0 0 0 0 0 0 0 0 0 0 0 0 0 0 0 0 0 0
0 0 0 0 1 3 13 28 42 49 52 54 50 38 27 18 13 17 18 13 5 2 1 0 0 0 0 0 0 0 0 0 0 0 0 0 0 0 0 0 0 0 0
0 0 1 1 1 3 11 21 25 23 25 34 39 36 31 24 21 28 35 24 11 7 5 2 0 0 0 0 0 0 0 0 0 0 0 0 0 0 0 0 0 0 0
0 0 1 1 1 3 11 19 21 19 23 31 32 28 24 20 16 23 28 21 12 9 6 2 0 0 0 0 0 1 1 1 0 0 0 0 0 0 0 0 0 0 0
0 0 0 1 1 4 11 17 19 22 26 27 22 16 12 11 9 9 11 9 7 6 4 2 0 0 0 0 0 1 3 3 1 0 0 0 0 0 0 0 0 0 0
0 0 0 1 2 4 6 8 11 17 20 17 11 6 5 6 4 3 3 3 3 2 2 1 1 0 0 1 1 2 4 4 2 0 0 0 0 0 0 0 0 0 0
0 0 0 1 2 2 2 2 6 11 13 9 4 3 3 2 1 1 1 1 1 1 0 1 1 1 0 1 2 3 4 4 2 0 0 0 0 0 0 0 0 0 0
0 0 0 0 1 1 1 2 5 11 12 7 2 1 1 0 0 0 0 0 0 0 0 0 1 1 0 0 1 2 2 2 1 0 0 1 0 0 0 0 0 0 0
0 0 0 0 1 1 2 4 10 18 19 10 2 0 0 0 0 0 0 0 0 0 0 0 0 0 0 0 0 0 1 1 1 2 2 2 2 1 0 0 0 0 0
0 0 0 0 1 4 9 16 24 32 30 16 3 0 0 0 0 0 0 0 0 0 0 0 0 0 0 0 0 0 0 1 2 3 3 2 3 2 0 0 0 0 0
0 0 0 1 4 13 26 36 43 47 42 23 5 0 0 0 0 0 0 0 0 0 0 0 0 0 0 0 0 0 0 0 1 2 1 1 2 3 1 0 0 0 0
0 0 0 1 6 23 42 51 54 58 51 30 9 0 0 0 0 0 0 0 0 0 0 0 0 0 0 0 0 0 0 0 0 0 0 0 1 2 1 0 0 0 0
0 0 0 0 5 23 49 59 58 60 56 37 13 2 0 0 0 0 0 0 0 0 0 0 0 0 0 0 0 0 0 0 0 0 0 0 1 1 1 0 0 0 0
0 0 0 0 2 18 48 65 59 52 49 36 17 6 3 1 0 0 0 0 0 0 0 0 0 0 0 0 0 0 0 0 0 0 0 0 0 0 0 0 0 0 0
0 0 0 0 1 15 47 68 59 43 35 29 26 26 23 17 10 5 1 0 0 0 0 0 0 0 0 0 0 0 0 0 0 0 0 0 0 0 0 0 0 0 0
0 0 1 1 2 16 47 67 59 42 34 34 44 57 57 50 38 22 9 4 1 0 0 0 0 0 0 0 0 0 0 0 0 0 0 0 0 0 0 0 0 0 0
0 0 1 3 8 23 46 60 56 48 45 51 65 78 83 80 69 50 32 20 12 7 5 3 1 0 0 0 0 0 0 0 0 0 0 0 0 0 0 0 0 0 0
0 0 1 4 11 22 34 39 38 39 43 51 63 75 83 87 84 71 56 45 35 26 20 13 6 2 1 0 0 0 0 0 0 0 0 0 0 0 0 0 0 0 0
0 0 0 2 5 9 12 13 14 17 22 27 36 49 60 67 69 63 56 52 47 38 29 21 13 9 7 3 0 0 0 0 0 0 0 0 0 0 0 0 0 0 0
0 0 0 0 0 0 0 0 1 2 4 6 10 18 24 30 33 33 33 33 30 25 22 17 14 14 13 5 0 0 1 1 0 0 0 0 0 0 0 0 0 0 0
0 0 0 0 0 0 0 0 0 0 0 0 1 2 4 5 6 8 9 9 8 7 8 8 8 9 8 3 0 0 1 1 0 0 0 0 0 0 0 0 0 0 0
0 0 0 0 0 0 0 0 0 0 0 0 0 0 0 0 0 0 0 0 0 1 1 2 2 2 1 0 0 0 1 1 0 0 0 0 0 0 0 0 0 0 0
0 0 0 0 0 0 0 0 0 0 0 0 0 0 0 0 0 0 0 0 0 0 0 0 0 0 0 0 0 0 0 0 0 0 0 0 0 0 0 0 0 0 0
0 0 0 0 0 0 0 0 0 0 0 0 0 0 0 0 0 0 0 0 0 0 0 0 0 0 0 0 0 0 0 0 0 0 0 0 0 0 0 0 0 0 0
0 0 0 0 0 0 0 0 0 0 0 0 0 0 0 0 0 0 0 0 0 0 0 0 0 0 0 0 0 0 0 0 0 0 0 0 0 0 0 0 0 0 0
0 0 0 0 0 0 0 0 0 0 0 0 0 0 0 0 0 0 0 0 0 0 0 0 0 0 0 0 0 0 0 0 0 0 0 0 0 0 0 0 0 0 0
Wind_Speed
6 6 5 4 5 6 7 7 8 8 7 6 6 6 6 6 7 7 10 11 11 11 8 7 10 9 9 10 10 8 8 7 6 5 5 4 4 5 4 4 5 7 7
9 9 7 6 5 5 6 7 9 9 8 6 6 5 5 5 6 6 8 11 12 11 9 8 7 9 8 11 11 9 7 6 7 6 6 5 5 3 3 3 3 5 5
12 11 8 6 6 5 6 6 8 9 9 9 6 5 4 4 5 7 7 9 11 11 8 8 7 9 11 10 12 13 13 9 10 8 6 4 4 5 5 5 3 3 3
11 10 8 7 7 7 7 7 8 9 9 9 8 9 6 6 7 6 7 9 12 12 10 8 8 10 11 11 12 14 12 11 10 8 6 4 3 4 5 5 5 4 3
12 11 8 7 7 7 7 7 8 8 9 9 8 8 7 5 4 5 6 7 9 11 12 12 11 12 12 13 12 12 13 11 10 9 8 6 4 6 4 6 6 6 5
12 10 8 7 7 7 6 6 7 8 8 8 8 8 7 6 6 6 6 5 5 7 12 13 13 12 10 11 10 10 13 11 12 11 9 8 7 7 5 4 6 6 6
11 10 9 8 8 7 6 7 7 7 8 8 8 8 7 7 7 6 6 6 5 5 8 10 11 11 10 8 6 6 9 11 12 12 9 8 7 6 6 5 4 5 6
10 9 8 8 8 8 8 8 7 7 7 7 7 7 7 4 4 5 5 5 5 5 6 7 8 9 9 9 8 6 7 9 11 13 11 7 7 5 6 5 4 5 5
8 8 7 7 8 9 9 9 9 8 7 7 6 6 5 5 5 5 5 5 5 4 6 6 6 7 8 9 9 7 7 8 10 11 11 8 7 7 7 7 6 6 6
5 6 7 7 8 9 10 10 9 9 8 7 6 4 5 5 4 4 6 5 5 5 6 7 6 7 7 8 8 8 7 6 7 6 8 7 6 7 7 7 8 8 7
4 4 5 8 9 9 10 11 11 10 9 8 7 6 5 5 5 5 5 6 6 6 7 7 8 8 8 8 7 7 9 7 5 4 6 8 9 7 7 7 8 8 7
7 6 6 7 9 11 12 12 12 12 10 9 8 7 5 5 5 5 6 7 7 7 8 8 8 7 8 8 8 8 7 5 2 3 5 8 7 9 7 7 9 8 9
9 8 8 8 9 10 11 12 12 11 11 10 9 8 7 7 6 6 6 7 8 8 8 9 9 9 9 9 9 8 8 6 5 5 7 8 8 9 8 9 9 8 8
11 10 9 8 8 9 11 11 11 11 10 10 9 9 8 7 7 7 6 7 8 8 8 8 9 9 10 10 10 9 10 11 11 10 9 9 11 11 10 9 10 9 9
12 10 9 7 6 8 10 10 9 9 9 9 9 8 8 7 8 7 8 8 8 8 8 7 7 7 7 8 10 11 12 13 13 12 11 11 11 10 9 7 8 8 8
11 9 8 6 4 6 8 8 7 7 7 7 8 7 7 8 8 9 9 9 9 10 9 8 8 8 6 6 6 7 9 10 11 12 11 10 10 12 12 13 11 8 9
8 6 5 4 2 4 6 7 6 5 5 6 7 7 8 8 9 10 10 10 10 10 10 10 10 10 8 8 8 9 9 9 10 10 10 8 8 10 11 13 15 14 14
5 6 7 8 8 8 8 8 6 5 3 4 5 6 7 8 9 9 10 10 10 10 10 10 10 10 8 9 9 8 12 10 10 10 11 10 10 11 11 10 11 12 13
8 9 9 10 11 11 10 10 9 7 5 2 1 2 3 5 7 9 10 9 9 9 10 9 10 10 8 9 8 9 9 9 10 9 9 9 10 7 7 9 10 9 8
8 8 9 11 11 11 10 10 9 8 7 6 6 5 5 3 2 5 6 6 7 8 8 8 9 10 9 9 9 10 7 8 7 6 6 4 4 4 6 8 6 6 5
7 6 8 9 9 9 9 10 9 8 7 6 7 7 7 6 5 2 1 3 4 6 6 7 7 8 7 8 8 8 6 5 5 5 4 4 6 4 4 5 3 1 1
5 5 7 8 7 7 8 9 9 7 6 6 7 7 7 7 5 4 4 4 4 5 5 5 5 5 5 5 7 8 7 5 5 4 4 5 7 5 5 3 3 4 2
4 5 6 7 7 6 7 8 7 5 5 6 6 6 6 6 5 4 5 5 4 3 3 3 3 4 4 5 5 7 7 5 4 2 6 7 8 7 6 4 5 6 3
3 3 4 4 5 5 4 5 4 4 5 5 6 5 6 6 6 4 3 4 3 3 2 1 0 1 2 3 4 5 6 6 5 6 8 9 6 4 4 6 6 5 3
4 3 3 2 2 2 3 3 3 3 4 4 4 5 5 6 5 5 5 4 4 4 3 2 2 2 0 1 1 2 4 6 5 6 6 6 6 6 4 4 3 3 3
5 4 4 4 3 2 3 2 1 2 3 3 4 3 3 4 4 3 4 8 7 6 6 6 5 3 3 4 2 1 3 6 7 4 4 3 3 4 4 5 5 4 4
Wind_Direction
189 180 177 185 200 205 204 190 186 172 167 174 186 184 196 209 219 214 205 203 207 202 200 213 209 198 195 197 197 187 190 182 179 162 151 144 123 96 105 82 82 80 71
189 176 168 157 168 173 179 181 182 176 176 182 191 198 194 207 215 219 210 205 203 197 194 207 228 210 208 210 209 192 190 189 194 190 176 165 154 159 133 127 100 96 92
196 179 172 159 154 162 170 179 183 179 181 180 183 184 183 194 197 212 209 205 198 189 180 191 223 236 220 216 219 206 194 193 201 208 205 200 172 150 165 159 160 125 115
195 179 173 163 157 156 165 174 179 182 183 183 191 197 206 211 211 205 202 204 200 193 183 191 213 238 237 225 220 214 202 196 196 208 234 245 143 180 157 186 188 174 167
190 178 168 152 141 142 154 165 169 175 179 194 206 222 231 230 221 213 209 206 201 200 198 203 209 227 234 232 223 213 206 199 199 199 204 202 184 235 184 165 179 189 195
181 170 154 152 148 146 152 162 169 168 177 193 207 219 221 215 210 209 205 204 207 214 213 211 213 217 221 222 220 213 209 211 207 205 203 201 202 216 210 189 177 182 176
173 170 169 172 167 167 169 170 169 166 175 189 201 211 213 218 220 217 211 205 205 214 218 214 214 211 207 197 185 192 211 217 216 213 210 211 219 214 217 226 193 181 166
180 182 186 186 181 183 184 182 176 168 172 195 200 203 200 216 229 222 213 204 206 207 204 207 207 205 196 183 170 164 202 218 217 217 212 215 226 227 231 238 233 216 189
197 203 204 203 196 194 192 190 184 177 181 196 196 203 206 211 215 217 207 201 204 203 199 195 193 190 185 179 168 165 187 214 216 212 212 210 215 221 232 240 241 243 233
236 227 217 217 212 205 197 192 189 184 185 191 192 199 210 200 209 207 195 195 193 185 175 183 188 189 185 178 169 159 164 190 210 215 216 212 220 221 221 228 235 243 250
343 294 239 220 214 208 200 194 188 187 185 187 187 195 198 200 202 203 192 190 185 177 183 189 196 194 187 178 165 157 154 164 186 208 221 223 223 216 214 218 226 233 240
336 316 283 241 216 208 204 200 194 185 184 183 183 197 194 197 211 201 192 188 187 190 193 191 202 194 178 173 167 161 154 154 183 249 254 239 220 223 221 219 224 227 232
311 305 285 262 234 214 207 202 198 187 179 179 183 193 198 202 212 209 193 195 195 195 198 193 202 204 193 183 179 174 168 174 205 238 259 261 240 225 226 227 232 228 232
297 296 286 266 241 219 207 202 198 190 181 182 188 199 208 206 211 209 204 205 205 201 201 195 200 207 204 198 192 191 190 193 203 215 230 250 257 250 246 236 237 227 227
287 291 292 285 246 215 203 198 195 191 187 192 200 208 216 213 214 208 209 211 210 212 211 206 201 201 204 202 199 199 203 204 208 213 218 228 246 273 281 273 252 225 218
289 299 304 303 259 204 189 180 180 182 192 207 218 217 222 219 220 218 215 214 210 215 215 218 214 206 204 180 203 228 224 224 221 221 223 223 226 241 243 251 261 251 229
314 325 343 18 66 141 149 150 153 159 192 222 231 224 221 221 223 221 217 214 213 212 213 219 219 218 202 172 200 223 242 238 238 235 231 222 226 230 236 228 228 237 242
15 48 66 71 76 86 96 102 114 131 173 229 239 231 224 220 221 219 216 213 210 205 207 211 216 223 205 185 204 209 235 239 237 235 236 227 226 221 228 232 232 235 227
54 65 73 79 77 79 89 95 93 89 82 54 327 281 249 230 216 216 218 211 204 202 201 202 205 210 203 187 201 211 234 238 235 229 228 228 231 205 212 243 247 247 245
53 67 76 77 75 74 78 80 77 70 59 41 29 23 21 359 287 236 221 207 206 209 205 205 205 204 202 178 195 218 236 237 229 219 213 201 245 153 194 236 252 255 239
47 62 75 75 74 77 78 74 66 55 41 31 33 33 33 34 30 30 131 181 194 198 200 200 203 204 198 178 194 216 244 239 222 201 198 179 156 163 191 252 270 343 212
57 69 83 83 78 78 80 75 65 52 43 39 37 36 35 40 50 65 88 119 139 147 159 177 185 197 191 196 190 210 236 268 229 205 186 152 156 170 187 214 119 124 153
76 82 94 94 88 76 68 69 63 44 40 43 39 34 42 51 56 81 103 109 118 131 148 173 187 193 187 175 185 203 210 235 249 125 89 122 153 168 184 180 167 181 185
105 111 132 120 98 78 59 50 49 27 27 38 32 28 33 48 61 72 93 99 94 101 111 116 179 206 199 192 192 190 182 183 181 139 124 129 142 152 126 160 185 199 190
150 165 198 174 122 80 33 16 359 346 11 34 38 39 47 49 54 70 52 35 57 32 11 17 359 347 304 43 306 246 200 190 175 155 160 163 161 158 165 181 185 185 183
169 181 201 222 229 256 309 325 282 282 330 22 36 36 46 64 66 73 86 55 50 53 48 38 15 20 357 324 269 208 112 114 141 170 167 173 185 182 179 186 195 202 207